| time (UTC) | temp C | wind direction | speed KPH | gust KPH | rain 1hr cm | rain 24hr cm | rain mn cm | humidity % | barometer mb |
| 20260507151840 | 18 | 0.0 | 0.0 | 0.00 | 0.00 | 0.00 | 99 | 1010.7 | |
| 20260507150823 | 19 | 0.0 | 0.0 | 0.00 | 0.00 | 0.00 | 99 | 1010.7 | |
| 20260507145811 | 19 | 0.0 | 0.0 | 0.00 | 0.00 | 0.00 | 99 | 1010.7 | |
| 20260507144743 | 19 | 0.0 | 0.0 | 0.00 | 0.00 | 0.00 | 99 | 1010.7 | |
| 20260507143731 | 20 | 0.0 | 0.0 | 0.00 | 0.00 | 0.00 | 99 | 1010.8 | |
| 20260507142720 | 19 | 0.0 | 0.0 | 0.00 | 0.00 | 0.00 | 99 | 1010.9 | |
| 20260507141714 | 19 | 0.0 | 0.0 | 0.00 | 0.00 | 0.00 | 99 | 1011.1 | |
| 20260507140658 | 19 | 0.0 | 0.0 | 0.00 | 0.00 | 0.00 | 99 | 1011.1 | |
| 20260507135646 | 19 | 0.0 | 0.0 | 0.00 | 0.00 | 0.00 | 99 | 1011.3 | |
| 20260507134636 | 20 | 0.0 | 0.0 | 0.00 | 0.00 | 0.00 | 99 | 1011.2 | |
| 20260507133624 | 20 | 0.0 | 0.0 | 0.00 | 0.00 | 0.00 | 99 | 1011.3 | |
| 20260507132613 | 20 | 0.0 | 0.0 | 0.00 | 0.00 | 0.00 | 99 | 1011.4 | |
| 20260507131608 | 20 | 0.0 | 0.0 | 0.00 | 0.00 | 0.00 | 99 | 1011.6 | |
| 20260507130551 | 20 | 0.0 | 0.0 | 0.00 | 0.00 | 0.00 | 99 | 1011.7 | |
| 20260507125540 | 20 | 0.0 | 0.0 | 0.00 | 0.00 | 0.00 | 99 | 1011.8 | |
| 20260507124512 | 20 | 0.0 | 0.0 | 0.00 | 0.00 | 0.00 | 99 | 1011.9 | |
| 20260507123501 | 20 | 0.0 | 0.0 | 0.00 | 0.00 | 0.00 | 99 | 1012.0 | |
| 20260507122449 | 20 | 0.0 | 0.0 | 0.00 | 0.00 | 0.00 | 99 | 1012.1 | |
| 20260507121443 | 20 | 0.0 | 0.0 | 0.00 | 0.00 | 0.00 | 99 | 1012.3 | |
| 20260507120426 | 20 | 0.0 | 0.0 | 0.00 | 0.00 | 0.00 | 99 | 1012.4 | |
| 20260507115416 | 21 | 0.0 | 0.0 | 0.00 | 0.00 | 0.00 | 99 | 1012.3 | |
| 20260507114404 | 21 | 0.0 | 0.0 | 0.00 | 0.00 | 0.00 | 99 | 1012.5 | |
| 20260507113352 | 20 | 0.0 | 0.0 | 0.00 | 0.00 | 0.00 | 99 | 1012.6 | |
| 20260507112324 | 21 | 0.0 | 0.0 | 0.00 | 0.00 | 0.00 | 99 | 1012.6 | |
| 20260507111318 | 21 | 0.0 | 0.0 | 0.00 | 0.00 | 0.00 | 99 | 1012.6 | |
| 20260507110302 | 21 | 0.0 | 0.0 | 0.00 | 0.00 | 0.00 | 99 | 1012.6 | |
| 20260507105250 | 21 | 0.0 | 0.0 | 0.00 | 0.00 | 0.00 | 99 | 1012.7 | |
| 20260507104222 | 21 | 0.0 | 0.0 | 0.00 | 0.00 | 0.00 | 99 | 1012.8 | |
| 20260507103211 | 21 | 0.0 | 0.0 | 0.00 | 0.00 | 0.00 | 99 | 1012.9 | |
| 20260507102159 | 21 | 0.0 | 0.0 | 0.00 | 0.00 | 0.00 | 99 | 1012.8 | |
| 20260507101153 | 21 | 0.0 | 0.0 | 0.00 | 0.00 | 0.00 | 99 | 1012.8 | |
| 20260507100137 | 21 | 0.0 | 0.0 | 0.00 | 0.00 | 0.00 | 99 | 1012.8 | |
| 20260507095126 | 21 | 0.0 | 0.0 | 0.00 | 0.00 | 0.00 | 99 | 1013.0 | |
| 20260507094114 | 22 | 0.0 | 0.0 | 0.00 | 0.00 | 0.00 | 99 | 1013.1 | |
| 20260507093102 | 21 | 0.0 | 0.0 | 0.00 | 0.00 | 0.00 | 99 | 1013.2 | |
| 20260507092051 | 22 | 0.0 | 0.0 | 0.00 | 0.00 | 0.00 | 99 | 1013.0 | |
| 20260507091046 | 22 | 0.0 | 0.0 | 0.00 | 0.00 | 0.00 | 99 | 1012.9 | |
| 20260507090030 | 22 | 0.0 | 0.0 | 0.00 | 0.00 | 0.00 | 99 | 1012.9 | |
| 20260507085018 | 22 | 0.0 | 0.0 | 0.00 | 0.00 | 0.00 | 99 | 1013.1 | |
| 20260507084007 | 21 | 0.0 | 0.0 | 0.00 | 0.00 | 0.00 | 99 | 1013.2 | |
| 20260507082956 | 22 | 0.0 | 0.0 | 0.00 | 0.00 | 0.00 | 99 | 1013.0 | |
| 20260507081945 | 22 | 0.0 | 0.0 | 0.00 | 0.00 | 0.00 | 99 | 1012.7 | |
| 20260507080939 | 23 | 0.0 | 0.0 | 0.00 | 0.00 | 0.00 | 99 | 1012.7 | |
| 20260507075921 | 22 | 0.0 | 0.0 | 0.00 | 0.00 | 0.00 | 99 | 1012.7 | |
| 20260507074910 | 23 | 0.0 | 0.0 | 0.00 | 0.00 | 0.00 | 99 | 1012.6 | |
| 20260507073842 | 24 | 0.0 | 0.0 | 0.00 | 0.00 | 0.00 | 99 | 1012.8 | |
| 20260507072831 | 26 | 0.0 | 0.0 | 0.00 | 0.00 | 0.00 | 99 | 1012.5 | |
| 20260507071802 | 28 | 0.0 | 0.0 | 0.00 | 0.00 | 0.00 | 97 | 1012.2 | |
| 20260507070757 | 27 | 0.0 | 0.0 | 0.00 | 0.00 | 0.00 | 99 | 1012.4 | |
| 20260507065740 | 27 | 0.0 | 0.0 | 0.00 | 0.00 | 0.00 | 99 | 1012.4 | |
| 20260507064729 | 28 | 0.0 | 0.0 | 0.00 | 0.00 | 0.00 | 99 | 1012.5 | |
| 20260507063717 | 25 | 0.0 | 0.0 | 0.00 | 0.00 | 0.00 | 99 | 1012.5 | |
| 20260507062706 | 25 | 0.0 | 0.0 | 0.00 | 0.00 | 0.00 | 99 | 1012.6 | |
| 20260507061654 | 20 | 0.0 | 0.0 | 0.00 | 0.00 | 0.00 | 99 | 1012.7 | |
| 20260507060631 | 18 | 0.0 | 0.0 | 0.00 | 0.00 | 0.00 | 99 | 1012.6 | |
| 20260507055616 | 19 | 0.0 | 0.0 | 0.00 | 0.00 | 0.00 | 99 | 1012.6 | |
| 20260507054605 | 25 | 0.0 | 0.0 | 0.00 | 0.00 | 0.00 | 99 | 1012.3 | |
| 20260507053554 | 20 | 0.0 | 0.0 | 0.00 | 0.00 | 0.00 | 99 | 1012.2 | |
| 20260507052543 | 17 | 0.0 | 0.0 | 0.00 | 0.00 | 0.00 | 99 | 1012.2 | |
| 20260507051514 | 16 | 0.0 | 0.0 | 0.00 | 0.00 | 0.00 | 99 | 1012.2 | |
| 20260507050508 | 16 | 0.0 | 0.0 | 0.00 | 0.00 | 0.00 | 99 | 1012.2 | |
| 20260507045452 | 16 | 0.0 | 0.0 | 0.00 | 0.00 | 0.00 | 99 | 1012.1 | |
| 20260507044441 | 16 | 0.0 | 0.0 | 0.00 | 0.00 | 0.00 | 99 | 1012.0 | |
| 20260507043222 | 16 | 0.0 | 0.0 | 0.00 | 0.00 | 0.00 | 99 | 1011.9 | |
| 20260507042211 | 16 | 0.0 | 0.0 | 0.00 | 0.00 | 0.00 | 99 | 1011.8 | |
| 20260507040958 | 16 | 0.0 | 0.0 | 0.00 | 0.00 | 0.00 | 99 | 1011.8 | |
| 20260507035952 | 16 | 0.0 | 0.0 | 0.00 | 0.00 | 0.00 | 99 | 1011.8 | |
| 20260507034935 | 16 | 0.0 | 0.0 | 0.00 | 0.00 | 0.00 | 99 | 1011.9 | |
| 20260507033923 | 16 | 0.0 | 0.0 | 0.00 | 0.00 | 0.00 | 99 | 1012.0 | |
| 20260507032912 | 16 | 0.0 | 0.0 | 0.00 | 0.00 | 0.00 | 99 | 1012.1 | |
| 20260507031901 | 16 | 0.0 | 0.0 | 0.00 | 0.00 | 0.00 | 99 | 1012.2 | |
| 20260507030850 | 16 | 0.0 | 0.0 | 0.00 | 0.00 | 0.00 | 99 | 1012.2 | |
| 20260507025854 | 16 | 0.0 | 0.0 | 0.00 | 0.00 | 0.00 | 99 | 1012.3 | |
| 20260507021437 | 16 | 0.0 | 0.0 | 0.00 | 0.00 | 0.00 | 99 | 1012.4 | |
| 20260507020427 | 16 | 0.0 | 0.0 | 0.00 | 0.00 | 0.00 | 99 | 1012.4 | |
| 20260507015405 | 16 | 0.0 | 0.0 | 0.00 | 0.00 | 0.00 | 99 | 1012.4 | |
| 20260507014348 | 16 | 0.0 | 0.0 | 0.00 | 0.00 | 0.00 | 99 | 1012.3 | |
| 20260507013335 | 16 | 0.0 | 0.0 | 0.00 | 0.00 | 0.00 | 99 | 1012.4 | |
| 20260507012325 | 16 | 0.0 | 0.0 | 0.00 | 0.00 | 0.00 | 99 | 1012.3 | |
| 20260507011207 | 16 | 0.0 | 0.0 | 0.00 | 0.00 | 0.00 | 99 | 1012.3 | |
| 20260507010156 | 16 | 0.0 | 0.0 | 0.00 | 0.00 | 0.00 | 99 | 1012.4 | |
| 20260507005043 | 16 | 0.0 | 0.0 | 0.00 | 0.00 | 0.00 | 99 | 1012.5 | |
| 20260507004027 | 16 | 0.0 | 0.0 | 0.00 | 0.00 | 0.00 | 99 | 1012.5 | |
| 20260507003016 | 17 | 0.0 | 0.0 | 0.00 | 0.00 | 0.00 | 99 | 1012.6 | |
| 20260507002005 | 16 | 0.0 | 0.0 | 0.00 | 0.00 | 0.00 | 99 | 1012.5 | |
| 20260507000953 | 17 | 0.0 | 0.0 | 0.00 | 0.00 | 0.00 | 99 | 1012.7 | |
| 20260506235942 | 17 | 0.0 | 0.0 | 0.00 | 0.00 | 0.00 | 99 | 1012.8 | |
| 20260506234937 | 17 | 0.0 | 0.0 | 0.00 | 0.00 | 0.00 | 99 | 1013.0 | |
| 20260506233920 | 17 | 0.0 | 0.0 | 0.00 | 0.00 | 0.00 | 99 | 1013.1 | |
| 20260506232852 | 16 | 0.0 | 0.0 | 0.00 | 0.00 | 0.00 | 99 | 1013.0 | |
| 20260506231840 | 17 | 0.0 | 0.0 | 0.00 | 0.00 | 0.00 | 99 | 1012.9 | |
| 20260506230829 | 17 | 0.0 | 0.0 | 0.00 | 0.00 | 0.00 | 99 | 1013.0 | |
| 20260506225718 | 17 | 0.0 | 0.0 | 0.00 | 0.00 | 0.00 | 99 | 1013.1 | |
| 20260506224712 | 17 | 0.0 | 0.0 | 0.00 | 0.00 | 0.00 | 99 | 1013.2 | |
| 20260506223654 | 17 | 0.0 | 0.0 | 0.00 | 0.00 | 0.00 | 99 | 1013.2 | |
| 20260506222643 | 17 | 0.0 | 0.0 | 0.00 | 0.00 | 0.00 | 99 | 1013.2 | |
| 20260506221631 | 17 | 0.0 | 0.0 | 0.00 | 0.00 | 0.00 | 99 | 1013.3 | |
| 20260506220620 | 16 | 0.0 | 0.0 | 0.00 | 0.00 | 0.00 | 99 | 1013.2 | |
| 20260506215608 | 17 | 0.0 | 0.0 | 0.00 | 0.00 | 0.00 | 99 | 1013.3 | |
| 20260506214603 | 17 | 0.0 | 0.0 | 0.00 | 0.00 | 0.00 | 99 | 1013.4 | |
| 20260506213546 | 17 | 0.0 | 0.0 | 0.00 | 0.00 | 0.00 | 99 | 1013.3 | |
| 20260506212535 | 17 | 0.0 | 0.0 | 0.00 | 0.00 | 0.00 | 99 | 1013.2 | |
| 20260506211417 | 17 | 0.0 | 0.0 | 0.00 | 0.00 | 0.00 | 99 | 1013.2 | |
| 20260506210305 | 17 | 0.0 | 0.0 | 0.00 | 0.00 | 0.00 | 99 | 1013.1 | |
| 20260506205254 | 17 | 0.0 | 0.0 | 0.00 | 0.00 | 0.00 | 99 | 1013.0 | |
| 20260506204141 | 17 | 0.0 | 0.0 | 0.00 | 0.00 | 0.00 | 99 | 1012.7 | |
| 20260506203124 | 17 | 0.0 | 0.0 | 0.00 | 0.00 | 0.00 | 99 | 1012.8 | |
| 20260506201910 | 17 | 0.0 | 0.0 | 0.00 | 0.00 | 0.00 | 99 | 1012.5 | |
| 20260506200900 | 17 | 0.0 | 0.0 | 0.00 | 0.00 | 0.00 | 99 | 1012.5 | |
| 20260506195848 | 17 | 0.0 | 0.0 | 0.00 | 0.00 | 0.00 | 99 | 1012.5 | |
| 20260506194837 | 17 | 0.0 | 0.0 | 0.00 | 0.00 | 0.00 | 99 | 1012.3 | |
| 20260506193731 | 17 | 0.0 | 0.0 | 0.00 | 0.00 | 0.00 | 99 | 1012.2 | |
| 20260506192713 | 17 | 0.0 | 0.0 | 0.00 | 0.00 | 0.00 | 99 | 1012.2 | |
| 20260506191702 | 17 | 0.0 | 0.0 | 0.00 | 0.00 | 0.00 | 99 | 1012.1 | |
| 20260506190652 | 17 | 0.0 | 0.0 | 0.00 | 0.00 | 0.00 | 99 | 1012.1 | |
| 20260506185641 | 17 | 0.0 | 0.0 | 0.00 | 0.00 | 0.00 | 99 | 1012.2 | |
| 20260506184628 | 16 | 0.0 | 0.0 | 0.00 | 0.00 | 0.00 | 99 | 1012.2 | |
| 20260506183515 | 17 | 0.0 | 0.0 | 0.00 | 0.00 | 0.00 | 99 | 1012.2 | |
| 20260506182443 | 17 | 0.0 | 0.0 | 0.00 | 0.00 | 0.00 | 99 | 1012.1 | |
| 20260506181432 | 17 | 0.0 | 0.0 | 0.00 | 0.00 | 0.00 | 99 | 1012.0 | |
| 20260506180421 | 17 | 0.0 | 0.0 | 0.00 | 0.00 | 0.00 | 99 | 1012.0 | |
| 20260506175208 | 17 | 0.0 | 0.0 | 0.00 | 0.00 | 0.00 | 99 | 1012.0 | |
| 20260506174156 | 17 | 0.0 | 0.0 | 0.00 | 0.00 | 0.00 | 99 | 1011.9 | |
| 20260506173152 | 17 | 0.0 | 0.0 | 0.00 | 0.00 | 0.00 | 99 | 1011.9 | |
| 20260506171725 | 17 | 0.0 | 0.0 | 0.00 | 0.00 | 0.00 | 99 | 1012.0 | |
| 20260506170715 | 17 | 0.0 | 0.0 | 0.00 | 0.00 | 0.00 | 99 | 1012.0 | |
| 20260506165704 | 17 | 0.0 | 0.0 | 0.00 | 0.00 | 0.00 | 99 | 1012.0 | |
| 20260506164652 | 17 | 0.0 | 0.0 | 0.00 | 0.00 | 0.00 | 99 | 1012.2 | |
| 20260506163640 | 17 | 0.0 | 0.0 | 0.00 | 0.00 | 0.00 | 99 | 1012.1 | |
| 20260506162634 | 17 | 0.0 | 0.0 | 0.00 | 0.00 | 0.00 | 99 | 1012.0 | |
| 20260506161617 | 17 | 0.0 | 0.0 | 0.00 | 0.00 | 0.00 | 99 | 1012.0 | |
| 20260506160602 | 17 | 0.0 | 0.0 | 0.00 | 0.00 | 0.00 | 99 | 1012.0 | |
| 20260506155550 | 17 | 0.0 | 0.0 | 0.00 | 0.00 | 0.00 | 99 | 1012.0 | |
| 20260506154539 | 17 | 0.0 | 0.0 | 0.00 | 0.00 | 0.00 | 99 | 1012.0 | |
| 20260506153527 | 17 | 0.0 | 0.0 | 0.00 | 0.00 | 0.00 | 99 | 1012.0 |